Location: St. Louis
(38.6270°N, 90.1994°W)
Time: 11:57:14
(UTC-06:00)

Vanguard 2 Rocket - All Passes

Search period start: 30 November 2021 00:00
Search period end: 10 December 2021 00:00
Orbit: 555 x 3324 km, 32.9° (Epoch: 30 November)

Date Brightness Start Highest point End Pass type
(mag) Time Alt. Az. Time Alt. Az. Time Alt. Az.
30 Nov - 01:10:06 10° W 01:24:02 37° SSW 01:41:16 10° SSE visible
30 Nov - 03:33:04 10° WSW 03:39:59 13° SW 03:47:04 10° SSW visible
30 Nov - 17:32:34 10° SSW 17:37:45 29° SE 17:45:48 10° E visible
30 Nov - 19:43:04 10° WSW 19:50:46 62° SSE 20:04:39 10° E visible
30 Nov - 21:55:25 10° W 22:06:00 64° S 22:23:42 10° ESE visible
01 Dec - 00:09:18 10° W 00:22:25 44° SSW 00:40:26 10° SE visible
01 Dec - 02:27:33 10° W 02:38:42 20° SW 02:51:00 10° S visible
01 Dec - 16:35:07 10° S 16:38:36 17° SE 16:43:09 10° ESE daylight
01 Dec - 18:44:12 10° SW 18:50:41 52° SSE 19:02:04 10° E visible
01 Dec - 20:55:59 10° W 21:05:01 66° S 21:20:59 10° ESE visible
01 Dec - 23:09:05 10° W 23:20:54 51° SSW 23:38:52 10° SE night (unlit)
02 Dec - 01:24:59 10° W 01:37:17 27° SW 01:52:11 10° SSE visible
02 Dec - 17:45:38 10° SW 17:51:01 38° SSE 17:59:49 10° E visible
02 Dec - 19:56:48 10° WSW 20:04:26 64° S 20:18:15 10° E visible
02 Dec - 22:09:18 10° W 22:19:38 56° SSW 22:36:45 10° ESE visible
03 Dec - 00:23:42 10° W 00:35:49 34° SSW 00:52:03 10° SSE visible
03 Dec - 02:46:56 10° WSW 02:51:54 11° SW 02:57:07 10° SSW visible
03 Dec - 16:47:29 10° SSW 16:51:42 25° SE 16:57:47 10° E daylight
03 Dec - 18:57:49 10° WSW 19:04:16 58° S 19:15:45 10° E visible
03 Dec - 21:09:50 10° W 21:18:43 60° S 21:34:17 10° ESE visible
03 Dec - 23:23:14 10° W 23:34:26 40° SSW 23:51:02 10° SE night (unlit)
04 Dec - 01:41:07 10° WSW 01:50:35 18° SW 02:01:34 10° S visible
04 Dec - 15:50:16 10° S 15:52:38 13° SE 15:55:25 10° ESE daylight
04 Dec - 17:59:04 10° SW 18:04:29 47° SSE 18:13:37 10° E visible
04 Dec - 20:10:37 10° W 20:18:09 62° S 20:31:44 10° ESE visible
04 Dec - 22:23:18 10° W 22:33:16 46° SSW 22:49:22 10° SE visible
05 Dec - 00:38:46 10° W 00:49:15 24° SSW 01:02:41 10° S visible
05 Dec - 17:00:33 10° SW 17:05:01 34° SSE 17:11:52 10° E visible
05 Dec - 19:11:35 10° WSW 19:17:57 60° S 19:29:22 10° E visible
05 Dec - 21:23:45 10° W 21:32:25 51° SSW 21:47:17 10° SE visible
05 Dec - 23:37:45 10° W 23:48:00 30° SSW 00:02:27 10° SSE night (unlit)
06 Dec - 16:02:24 10° SSW 16:05:50 21° SSE 16:10:20 10° E daylight
06 Dec - 18:12:42 10° WSW 18:18:05 54° S 18:27:19 10° E visible
06 Dec - 20:24:28 10° W 20:31:53 55° S 20:45:02 10° ESE visible
06 Dec - 22:37:32 10° W 22:46:56 36° SSW 23:01:24 10° SSE visible
07 Dec - 00:55:29 10° WSW 01:02:46 15° SW 01:11:21 10° S visible
07 Dec - 15:05:26 10° SSE 15:06:45 11° SE 15:08:09 10° SE daylight
07 Dec - 17:13:58 10° SW 17:18:32 43° SSE 17:25:43 10° E visible
07 Dec - 19:25:24 10° W 19:31:41 57° S 19:42:51 10° ESE visible
07 Dec - 21:37:48 10° W 21:46:07 41° SSW 21:59:50 10° SE visible
07 Dec - 23:53:07 10° WSW 00:01:37 20° SSW 00:12:43 10° S night (unlit)
08 Dec - 16:15:25 10° SW 16:19:14 30° SSE 16:24:30 10° E daylight
08 Dec - 18:26:27 10° WSW 18:31:48 55° S 18:40:57 10° ESE visible
08 Dec - 20:38:26 10° W 20:45:38 45° SSW 20:58:00 10° SE visible
08 Dec - 22:52:16 10° WSW 23:00:37 25° SSW 23:12:37 10° SSE night (unlit)
09 Dec - 15:17:10 10° SSW 15:20:04 19° SSE 15:23:28 10° ESE daylight
09 Dec - 17:27:36 10° WSW 17:32:11 49° S 17:39:27 10° E visible
09 Dec - 19:39:17 10° W 19:45:27 49° S 19:56:08 10° ESE visible
09 Dec - 21:52:10 10° W 21:59:52 30° SSW 22:11:45 10° SSE visible
